VICTORIA GONZALES, B current weather conditions

sailwx.info

Wind from 100 at 5 knots

Air temperature 9.9° C
Dewpoint 9.3° C

Last reported at 2019-Nov-17 18:00 UTC.
Time now 2019-Nov-17 18:37 UTC

Location: N 48°25' W 123°19'.
View on Google Maps.

See reports from other nearby stations

  
Tides and Currents Weather Stations Pressure Air Temp Water Temp Dewpoint Dewpoint Depression Visibility Wind Speed Wind Dir Waves Ship Positions
date/time (UTC)wind fromknots sea level pressurealtimeterstation pressurevisibilityair tempwater tempwave heightnotes
2019-Nov-17 18:00 100 5 9.9
2019-Nov-17 17:00 100 1 9.7
2019-Nov-17 16:00 140 6 9.7
2019-Nov-17 15:00 090 4 9.5
2019-Nov-17 14:00 050 4 9.3
2019-Nov-17 13:00 080 6 9.0
2019-Nov-17 12:00 100 6 8.9
2019-Nov-17 11:00 160 5 8.9
2019-Nov-17 10:00 100 6 9.3
2019-Nov-17 09:00 090 7 9.5
2019-Nov-17 08:00 060 2 9.3
2019-Nov-17 07:00 050 4 9.2
2019-Nov-17 06:00 070 2 9.5
2019-Nov-17 05:00 100 6 8.5
2019-Nov-17 04:00 090 4 8.9
2019-Nov-17 03:00 030 2 8.4
2019-Nov-17 02:00 150 5 8.9
2019-Nov-17 01:00 060 2 9.3
2019-Nov-17 00:00 070 2 9.5
2019-Nov-16 23:00 040 2 9.7
2019-Nov-16 22:00 070 2 9.8
2019-Nov-16 21:00 080 5 10.4
2019-Nov-16 20:00 090 1 8.8
2019-Nov-16 19:00 090 4 9.0
2019-Nov-16 18:00 090 6 9.0
2019-Nov-16 17:00 110 6 9.0
2019-Nov-16 16:00 110 6 8.7
2019-Nov-16 15:00 110 4 8.8
2019-Nov-16 14:00 130 5 8.8
2019-Nov-16 13:00 120 5 8.8
2019-Nov-16 12:00 120 6 9.1
2019-Nov-16 11:00 110 5 9.3
2019-Nov-16 10:00 280 1 9.4
2019-Nov-16 09:00 150 5 9.6
2019-Nov-16 08:00 220 6 9.3
2019-Nov-16 07:00 170 4 9.3
2019-Nov-16 06:00 290 4 10.1
2019-Nov-16 05:00 260 12 10.4
2019-Nov-16 04:00 280 7 10.4
2019-Nov-16 03:00 270 13 gusting 20 10.9
2019-Nov-16 02:00 260 12 gusting 17 10.8
2019-Nov-16 01:00 260 13 11.2
2019-Nov-16 00:00 260 13 gusting 18 11.7
2019-Nov-15 23:00 250 13 gusting 19 12.6
2019-Nov-15 22:00 250 13 gusting 18 13.3
2019-Nov-15 21:00 260 12 gusting 18 13.1
2019-Nov-15 20:00 260 12 gusting 20 12.4
2019-Nov-15 19:00 220 7 10.0
2019-Nov-15 18:00 240 0 9.1